Time,TemperatureF,DewpointF,PressureIn,WindDirection,WindDirectionDegrees,WindSpeedMPH,WindSpeedGustMPH,Humidity,HourlyPrecipIn,Conditions,Clouds,dailyrainin,SoftwareType,DateUTC
2013-02-15 00:00:00,23.0,18.0,30.02,ENE,67,1.0,3.0,86,0.00,,,0.00,Rainwise IP-100,2013-02-15 05:00:00,
2013-02-15 00:05:00,22.0,18.0,30.01,ENE,67,0.0,3.0,86,0.00,,,0.00,Rainwise IP-100,2013-02-15 05:05:00,
2013-02-15 00:10:00,22.0,18.0,30.01,ENE,67,0.0,2.0,86,0.00,,,0.00,Rainwise IP-100,2013-02-15 05:10:00,
2013-02-15 00:15:00,22.0,18.0,30.01,ENE,67,0.0,2.0,87,0.00,,,0.00,Rainwise IP-100,2013-02-15 05:15:00,
2013-02-15 00:20:00,22.0,18.0,30.01,ENE,67,0.0,0.0,86,0.00,,,0.00,Rainwise IP-100,2013-02-15 05:20:00,
2013-02-15 00:25:00,22.0,18.0,30.01,ENE,67,0.0,0.0,86,0.00,,,0.00,Rainwise IP-100,2013-02-15 05:25:00,
2013-02-15 00:30:00,22.0,18.0,30.01,ENE,67,0.0,0.0,86,0.00,,,0.00,Rainwise IP-100,2013-02-15 05:30:00,
2013-02-15 00:35:00,23.0,18.0,30.00,ENE,67,0.0,2.0,86,0.00,,,0.00,Rainwise IP-100,2013-02-15 05:35:00,
2013-02-15 00:37:00,23.0,18.0,30.00,ENE,67,0.0,2.0,86,0.00,,,0.00,Rainwise IP-100,2013-02-15 05:37:00,
2013-02-15 00:40:00,23.0,18.0,30.00,ENE,67,0.0,2.0,86,0.00,,,0.00,Rainwise IP-100,2013-02-15 05:40:00,
2013-02-15 00:45:00,23.0,18.0,30.00,ENE,67,0.0,3.0,86,0.00,,,0.00,Rainwise IP-100,2013-02-15 05:45:00,
2013-02-15 00:50:00,23.0,18.0,30.00,ENE,67,1.0,0.0,86,0.00,,,0.00,Rainwise IP-100,2013-02-15 05:50:00,
2013-02-15 00:55:00,23.0,18.0,30.00,ENE,67,2.0,4.0,86,0.00,,,0.00,Rainwise IP-100,2013-02-15 05:55:00,
2013-02-15 01:00:00,23.0,18.0,29.99,ENE,67,0.0,3.0,86,0.00,,,0.00,Rainwise IP-100,2013-02-15 06:00:00,
2013-02-15 01:05:00,23.0,18.0,29.99,ENE,67,0.0,2.0,86,0.00,,,0.00,Rainwise IP-100,2013-02-15 06:05:00,
2013-02-15 01:10:00,23.0,18.0,29.99,ENE,67,0.0,0.0,86,0.00,,,0.00,Rainwise IP-100,2013-02-15 06:10:00,
2013-02-15 01:15:00,23.0,18.0,29.99,ENE,67,0.0,1.0,86,0.00,,,0.00,Rainwise IP-100,2013-02-15 06:15:00,
2013-02-15 01:20:00,23.0,18.0,29.98,ENE,67,0.0,1.0,86,0.00,,,0.00,Rainwise IP-100,2013-02-15 06:20:00,
2013-02-15 01:25:00,23.0,18.0,29.98,ENE,67,3.0,3.0,86,0.00,,,0.00,Rainwise IP-100,2013-02-15 06:25:00,
2013-02-15 01:30:00,23.0,18.0,29.98,ENE,67,0.0,4.0,86,0.00,,,0.00,Rainwise IP-100,2013-02-15 06:30:00,
2013-02-15 01:35:00,23.0,18.0,29.98,ENE,67,1.0,2.0,87,0.00,,,0.00,Rainwise IP-100,2013-02-15 06:35:00,
2013-02-15 01:40:00,23.0,21.0,29.98,ENE,67,0.0,3.0,88,0.00,,,0.00,Rainwise IP-100,2013-02-15 06:40:00,
2013-02-15 01:45:00,22.0,21.0,29.98,ENE,67,4.0,5.0,89,0.00,,,0.00,Rainwise IP-100,2013-02-15 06:45:00,
2013-02-15 01:50:00,23.0,21.0,29.98,ENE,67,2.0,4.0,89,0.00,,,0.00,Rainwise IP-100,2013-02-15 06:50:00,
2013-02-15 01:55:00,22.0,21.0,29.98,ENE,67,1.0,4.0,89,0.00,,,0.00,Rainwise IP-100,2013-02-15 06:55:00,
2013-02-15 02:00:00,23.0,21.0,29.98,ENE,67,2.0,3.0,88,0.00,,,0.00,Rainwise IP-100,2013-02-15 07:00:00,
2013-02-15 02:05:00,23.0,21.0,29.98,ENE,67,3.0,5.0,88,0.00,,,0.00,Rainwise IP-100,2013-02-15 07:05:00,
2013-02-15 02:10:00,23.0,21.0,29.97,East,90,2.0,4.0,88,0.00,,,0.00,Rainwise IP-100,2013-02-15 07:10:00,
2013-02-15 02:15:00,23.0,18.0,29.97,East,90,1.0,4.0,87,0.00,,,0.00,Rainwise IP-100,2013-02-15 07:15:00,
2013-02-15 02:20:00,23.0,18.0,29.97,East,90,2.0,3.0,87,0.00,,,0.00,Rainwise IP-100,2013-02-15 07:20:00,
2013-02-15 02:25:00,23.0,21.0,29.97,East,90,2.0,3.0,89,0.00,,,0.00,Rainwise IP-100,2013-02-15 07:25:00,
2013-02-15 02:30:00,23.0,21.0,29.97,East,90,3.0,5.0,90,0.00,,,0.00,Rainwise IP-100,2013-02-15 07:30:00,
2013-02-15 02:35:00,23.0,21.0,29.97,East,90,5.0,5.0,90,0.00,,,0.00,Rainwise IP-100,2013-02-15 07:35:00,
2013-02-15 02:40:00,23.0,21.0,29.97,East,90,2.0,6.0,91,0.00,,,0.00,Rainwise IP-100,2013-02-15 07:40:00,
2013-02-15 02:45:00,23.0,21.0,29.97,East,90,3.0,3.0,90,0.00,,,0.00,Rainwise IP-100,2013-02-15 07:45:00,
2013-02-15 02:51:00,23.0,21.0,29.97,East,90,0.0,3.0,90,0.00,,,0.00,Rainwise IP-100,2013-02-15 07:51:00,
2013-02-15 02:56:00,23.0,21.0,29.97,East,90,0.0,1.0,90,0.00,,,0.00,Rainwise IP-100,2013-02-15 07:56:00,
2013-02-15 03:01:00,23.0,21.0,29.97,East,90,0.0,1.0,90,0.00,,,0.00,Rainwise IP-100,2013-02-15 08:01:00,
2013-02-15 03:06:00,25.0,23.0,29.96,East,90,1.0,5.0,89,0.00,,,0.00,Rainwise IP-100,2013-02-15 08:06:00,
2013-02-15 03:11:00,24.0,23.0,29.96,NNW,337,0.0,5.0,90,0.00,,,0.00,Rainwise IP-100,2013-02-15 08:11:00,
2013-02-15 03:16:00,24.0,23.0,29.96,WNW,292,0.0,0.0,91,0.00,,,0.00,Rainwise IP-100,2013-02-15 08:16:00,
2013-02-15 03:21:00,24.0,23.0,29.96,WNW,292,0.0,2.0,91,0.00,,,0.00,Rainwise IP-100,2013-02-15 08:21:00,
2013-02-15 03:26:00,25.0,24.0,29.96,NNW,337,6.0,6.0,90,0.00,,,0.00,Rainwise IP-100,2013-02-15 08:26:00,
2013-02-15 03:31:00,25.0,24.0,29.95,NE,45,2.0,6.0,90,0.00,,,0.00,Rainwise IP-100,2013-02-15 08:31:00,
2013-02-15 03:36:00,25.0,24.0,29.95,NW,315,0.0,4.0,90,0.00,,,0.00,Rainwise IP-100,2013-02-15 08:36:00,
2013-02-15 03:41:00,25.0,24.0,29.95,ENE,67,0.0,4.0,90,0.00,,,0.00,Rainwise IP-100,2013-02-15 08:41:00,
2013-02-15 03:46:00,25.0,23.0,29.95,ENE,67,2.0,3.0,89,0.00,,,0.00,Rainwise IP-100,2013-02-15 08:46:00,
2013-02-15 03:51:00,25.0,23.0,29.95,East,90,1.0,5.0,89,0.00,,,0.00,Rainwise IP-100,2013-02-15 08:51:00,
2013-02-15 03:56:00,25.0,23.0,29.95,SE,135,1.0,4.0,89,0.00,,,0.00,Rainwise IP-100,2013-02-15 08:56:00,
2013-02-15 04:01:00,26.0,24.0,29.94,SE,135,3.0,5.0,90,0.00,,,0.00,Rainwise IP-100,2013-02-15 09:01:00,
2013-02-15 04:06:00,27.0,26.0,29.94,South,180,3.0,7.0,94,0.00,,,0.00,Rainwise IP-100,2013-02-15 09:06:00,
2013-02-15 04:11:00,29.0,28.0,29.93,South,180,3.0,7.0,94,0.00,,,0.00,Rainwise IP-100,2013-02-15 09:11:00,
2013-02-15 04:16:00,29.0,28.0,29.93,SE,135,5.0,6.0,94,0.00,,,0.00,Rainwise IP-100,2013-02-15 09:16:00,
2013-02-15 04:21:00,30.0,29.0,29.92,SSE,157,4.0,6.0,95,0.00,,,0.00,Rainwise IP-100,2013-02-15 09:21:00,
2013-02-15 04:26:00,30.0,29.0,29.92,SW,225,7.0,8.0,95,0.00,,,0.00,Rainwise IP-100,2013-02-15 09:26:00,
2013-02-15 04:31:00,31.0,29.0,29.91,SSW,202,7.0,7.0,95,0.00,,,0.00,Rainwise IP-100,2013-02-15 09:31:00,
2013-02-15 04:36:00,32.0,31.0,29.91,SW,225,9.0,12.0,95,0.00,,,0.00,Rainwise IP-100,2013-02-15 09:36:00,
2013-02-15 04:41:00,32.0,31.0,29.90,SW,225,7.0,11.0,94,0.00,,,0.00,Rainwise IP-100,2013-02-15 09:41:00,
2013-02-15 04:46:00,32.0,31.0,29.90,SW,225,9.0,9.0,94,0.00,,,0.00,Rainwise IP-100,2013-02-15 09:46:00,
2013-02-15 04:51:00,31.0,29.0,29.91,WNW,292,5.0,12.0,93,0.00,,,0.00,Rainwise IP-100,2013-02-15 09:51:00,
2013-02-15 04:56:00,31.0,29.0,29.91,SW,225,9.0,9.0,95,0.00,,,0.00,Rainwise IP-100,2013-02-15 09:56:00,
2013-02-15 05:01:00,32.0,29.0,29.92,WSW,247,9.0,10.0,91,0.00,,,0.00,Rainwise IP-100,2013-02-15 10:01:00,
2013-02-15 05:06:00,33.0,31.0,29.92,SW,225,9.0,12.0,89,0.00,,,0.00,Rainwise IP-100,2013-02-15 10:06:00,
2013-02-15 05:11:00,33.0,31.0,29.91,South,180,10.0,11.0,89,0.00,,,0.00,Rainwise IP-100,2013-02-15 10:11:00,
2013-02-15 05:16:00,33.0,31.0,29.91,WSW,247,7.0,16.0,87,0.00,,,0.00,Rainwise IP-100,2013-02-15 10:16:00,
2013-02-15 05:21:00,33.0,31.0,29.91,SW,225,7.0,14.0,88,0.00,,,0.00,Rainwise IP-100,2013-02-15 10:21:00,
2013-02-15 05:26:00,33.0,31.0,29.91,SW,225,8.0,13.0,88,0.00,,,0.00,Rainwise IP-100,2013-02-15 10:26:00,
2013-02-15 05:31:00,34.0,31.0,29.91,SW,225,10.0,14.0,87,0.00,,,0.00,Rainwise IP-100,2013-02-15 10:31:00,
2013-02-15 05:36:00,34.0,32.0,29.91,South,180,9.0,13.0,88,0.00,,,0.00,Rainwise IP-100,2013-02-15 10:36:00,
2013-02-15 05:41:00,34.0,32.0,29.91,South,180,10.0,15.0,88,0.00,,,0.00,Rainwise IP-100,2013-02-15 10:41:00,
2013-02-15 05:46:00,34.0,32.0,29.91,South,180,12.0,12.0,88,0.00,,,0.00,Rainwise IP-100,2013-02-15 10:46:00,
2013-02-15 05:51:00,34.0,32.0,29.90,SW,225,9.0,15.0,88,0.00,,,0.00,Rainwise IP-100,2013-02-15 10:51:00,
2013-02-15 05:56:00,34.0,32.0,29.90,SSW,202,9.0,12.0,88,0.00,,,0.00,Rainwise IP-100,2013-02-15 10:56:00,
2013-02-15 06:01:00,34.0,31.0,29.90,SSW,202,10.0,15.0,87,0.00,,,0.00,Rainwise IP-100,2013-02-15 11:01:00,
2013-02-15 06:06:00,34.0,31.0,29.90,SW,225,7.0,12.0,87,0.00,,,0.00,Rainwise IP-100,2013-02-15 11:06:00,
2013-02-15 06:11:00,34.0,31.0,29.91,SW,225,8.0,10.0,87,0.00,,,0.00,Rainwise IP-100,2013-02-15 11:11:00,
2013-02-15 06:16:00,34.0,31.0,29.91,South,180,8.0,12.0,86,0.00,,,0.00,Rainwise IP-100,2013-02-15 11:16:00,
2013-02-15 06:21:00,35.0,31.0,29.90,South,180,7.0,13.0,85,0.00,,,0.00,Rainwise IP-100,2013-02-15 11:21:00,
2013-02-15 06:26:00,35.0,31.0,29.90,SW,225,7.0,14.0,85,0.00,,,0.00,Rainwise IP-100,2013-02-15 11:26:00,
2013-02-15 06:31:00,35.0,31.0,29.90,South,180,7.0,13.0,85,0.00,,,0.00,Rainwise IP-100,2013-02-15 11:31:00,
2013-02-15 06:36:00,35.0,31.0,29.90,South,180,10.0,13.0,86,0.00,,,0.00,Rainwise IP-100,2013-02-15 11:36:00,
2013-02-15 06:41:00,35.0,31.0,29.90,SW,225,10.0,15.0,85,0.00,,,0.00,Rainwise IP-100,2013-02-15 11:41:00,
2013-02-15 06:46:00,35.0,31.0,29.90,SW,225,10.0,13.0,85,0.00,,,0.00,Rainwise IP-100,2013-02-15 11:46:00,
2013-02-15 06:51:00,35.0,31.0,29.91,SSW,202,9.0,12.0,86,0.00,,,0.00,Rainwise IP-100,2013-02-15 11:51:00,
2013-02-15 06:56:00,35.0,32.0,29.91,SSW,202,11.0,14.0,89,0.00,,,0.00,Rainwise IP-100,2013-02-15 11:56:00,
2013-02-15 07:01:00,34.0,32.0,29.91,SSW,202,7.0,12.0,91,0.00,,,0.00,Rainwise IP-100,2013-02-15 12:01:00,
2013-02-15 07:06:00,34.0,33.0,29.91,SSW,202,9.0,12.0,94,0.00,,,0.00,Rainwise IP-100,2013-02-15 12:06:00,
2013-02-15 07:11:00,34.0,33.0,29.91,SSW,202,7.0,11.0,93,0.00,,,0.00,Rainwise IP-100,2013-02-15 12:11:00,
2013-02-15 07:16:00,34.0,32.0,29.91,South,180,7.0,12.0,91,0.00,,,0.00,Rainwise IP-100,2013-02-15 12:16:00,
2013-02-15 07:21:00,34.0,32.0,29.91,SSW,202,9.0,14.0,90,0.00,,,0.00,Rainwise IP-100,2013-02-15 12:21:00,
2013-02-15 07:26:00,34.0,32.0,29.91,SW,225,9.0,15.0,88,0.00,,,0.00,Rainwise IP-100,2013-02-15 12:26:00,
2013-02-15 07:31:00,35.0,31.0,29.91,SW,225,8.0,15.0,87,0.00,,,0.00,Rainwise IP-100,2013-02-15 12:31:00,
2013-02-15 07:36:00,35.0,31.0,29.91,SW,225,9.0,15.0,85,0.00,,,0.00,Rainwise IP-100,2013-02-15 12:36:00,
2013-02-15 07:41:00,36.0,31.0,29.90,WSW,247,10.0,13.0,82,0.00,,,0.00,Rainwise IP-100,2013-02-15 12:41:00,
2013-02-15 07:46:00,36.0,31.0,29.90,WSW,247,12.0,18.0,80,0.00,,,0.00,Rainwise IP-100,2013-02-15 12:46:00,
2013-02-15 07:51:00,37.0,31.0,29.90,WSW,247,13.0,22.0,78,0.00,,,0.00,Rainwise IP-100,2013-02-15 12:51:00,
2013-02-15 07:56:00,37.0,31.0,29.90,WSW,247,7.0,18.0,78,0.00,,,0.00,Rainwise IP-100,2013-02-15 12:56:00,
2013-02-15 08:01:00,37.0,31.0,29.90,SW,225,15.0,18.0,78,0.00,,,0.00,Rainwise IP-100,2013-02-15 13:01:00,
2013-02-15 08:06:00,37.0,31.0,29.90,SW,225,12.0,20.0,76,0.00,,,0.00,Rainwise IP-100,2013-02-15 13:06:00,
2013-02-15 08:11:00,37.0,31.0,29.91,WSW,247,15.0,25.0,76,0.00,,,0.00,Rainwise IP-100,2013-02-15 13:11:00,
2013-02-15 08:16:00,37.0,31.0,29.91,WSW,247,18.0,20.0,76,0.00,,,0.00,Rainwise IP-100,2013-02-15 13:16:00,
2013-02-15 08:21:00,37.0,31.0,29.91,SW,225,11.0,22.0,76,0.00,,,0.00,Rainwise IP-100,2013-02-15 13:21:00,
2013-02-15 08:26:00,37.0,31.0,29.91,WSW,247,10.0,20.0,76,0.00,,,0.00,Rainwise IP-100,2013-02-15 13:26:00,
2013-02-15 08:31:00,37.0,31.0,29.91,SW,225,14.0,15.0,75,0.00,,,0.00,Rainwise IP-100,2013-02-15 13:31:00,
2013-02-15 08:36:00,37.0,31.0,29.91,SW,225,12.0,19.0,75,0.00,,,0.00,Rainwise IP-100,2013-02-15 13:36:00,
2013-02-15 08:41:00,38.0,31.0,29.90,SW,225,15.0,17.0,75,0.00,,,0.00,Rainwise IP-100,2013-02-15 13:41:00,
2013-02-15 08:46:00,38.0,31.0,29.90,SW,225,19.0,19.0,73,0.00,,,0.00,Rainwise IP-100,2013-02-15 13:46:00,
2013-02-15 08:51:00,38.0,31.0,29.90,WSW,247,11.0,21.0,74,0.00,,,0.00,Rainwise IP-100,2013-02-15 13:51:00,
2013-02-15 08:56:00,38.0,31.0,29.90,SW,225,11.0,20.0,73,0.00,,,0.00,Rainwise IP-100,2013-02-15 13:56:00,
2013-02-15 09:01:00,38.0,31.0,29.91,SW,225,9.0,17.0,72,0.00,,,0.00,Rainwise IP-100,2013-02-15 14:01:00,
2013-02-15 09:06:00,38.0,29.0,29.91,SW,225,19.0,25.0,70,0.00,,,0.00,Rainwise IP-100,2013-02-15 14:06:00,
2013-02-15 09:11:00,39.0,31.0,29.91,SW,225,15.0,25.0,70,0.00,,,0.00,Rainwise IP-100,2013-02-15 14:11:00,
2013-02-15 09:16:00,38.0,29.0,29.91,SW,225,29.0,35.0,70,0.00,,,0.00,Rainwise IP-100,2013-02-15 14:16:00,
2013-02-15 09:21:00,38.0,29.0,29.91,SSW,202,12.0,29.0,70,0.00,,,0.00,Rainwise IP-100,2013-02-15 14:21:00,
2013-02-15 09:26:00,38.0,29.0,29.91,SW,225,10.0,17.0,70,0.00,,,0.00,Rainwise IP-100,2013-02-15 14:26:00,
2013-02-15 09:31:00,38.0,29.0,29.90,WSW,247,12.0,31.0,70,0.00,,,0.00,Rainwise IP-100,2013-02-15 14:31:00,
2013-02-15 09:36:00,38.0,31.0,29.90,SW,225,11.0,28.0,72,0.00,,,0.00,Rainwise IP-100,2013-02-15 14:36:00,
2013-02-15 09:41:00,38.0,31.0,29.92,SW,225,13.0,25.0,72,0.00,,,0.00,Rainwise IP-100,2013-02-15 14:41:00,
2013-02-15 09:46:00,38.0,29.0,29.92,WSW,247,13.0,20.0,71,0.00,,,0.00,Rainwise IP-100,2013-02-15 14:46:00,
2013-02-15 09:51:00,38.0,31.0,29.91,SSW,202,13.0,25.0,72,0.00,,,0.00,Rainwise IP-100,2013-02-15 14:51:00,
2013-02-15 09:56:00,38.0,29.0,29.91,WSW,247,9.0,26.0,71,0.00,,,0.00,Rainwise IP-100,2013-02-15 14:56:00,
2013-02-15 10:01:00,38.0,29.0,29.92,West,270,15.0,19.0,71,0.00,,,0.00,Rainwise IP-100,2013-02-15 15:01:00,
2013-02-15 10:06:00,38.0,29.0,29.92,WSW,247,13.0,19.0,70,0.00,,,0.00,Rainwise IP-100,2013-02-15 15:06:00,
2013-02-15 10:11:00,38.0,29.0,29.91,SW,225,15.0,26.0,70,0.00,,,0.00,Rainwise IP-100,2013-02-15 15:11:00,
2013-02-15 10:16:00,38.0,29.0,29.91,SW,225,13.0,23.0,70,0.00,,,0.00,Rainwise IP-100,2013-02-15 15:16:00,
2013-02-15 10:21:00,38.0,29.0,29.92,SSW,202,20.0,22.0,71,0.00,,,0.00,Rainwise IP-100,2013-02-15 15:21:00,
2013-02-15 10:26:00,38.0,29.0,29.92,SW,225,13.0,25.0,70,0.00,,,0.00,Rainwise IP-100,2013-02-15 15:26:00,
2013-02-15 10:31:00,38.0,29.0,29.92,SSW,202,20.0,25.0,69,0.00,,,0.00,Rainwise IP-100,2013-02-15 15:31:00,
2013-02-15 10:36:00,38.0,29.0,29.92,SW,225,17.0,25.0,69,0.00,,,0.00,Rainwise IP-100,2013-02-15 15:36:00,
2013-02-15 10:41:00,39.0,29.0,29.91,SW,225,15.0,25.0,68,0.00,,,0.00,Rainwise IP-100,2013-02-15 15:41:00,
2013-02-15 10:46:00,39.0,29.0,29.91,SW,225,11.0,23.0,67,0.00,,,0.00,Rainwise IP-100,2013-02-15 15:46:00,
2013-02-15 10:51:00,39.0,29.0,29.92,WSW,247,21.0,26.0,67,0.00,,,0.00,Rainwise IP-100,2013-02-15 15:51:00,
2013-02-15 10:56:00,39.0,29.0,29.92,West,270,13.0,28.0,67,0.00,,,0.00,Rainwise IP-100,2013-02-15 15:56:00,
2013-02-15 11:01:00,39.0,29.0,29.92,WSW,247,13.0,32.0,66,0.00,,,0.00,Rainwise IP-100,2013-02-15 16:01:00,
2013-02-15 11:06:00,39.0,29.0,29.92,WNW,292,19.0,29.0,66,0.00,,,0.00,Rainwise IP-100,2013-02-15 16:06:00,
2013-02-15 11:11:00,39.0,29.0,29.91,West,270,19.0,25.0,65,0.00,,,0.00,Rainwise IP-100,2013-02-15 16:11:00,
2013-02-15 11:16:00,40.0,29.0,29.91,SW,225,10.0,22.0,65,0.00,,,0.00,Rainwise IP-100,2013-02-15 16:16:00,
2013-02-15 11:21:00,40.0,29.0,29.90,West,270,14.0,27.0,65,0.00,,,0.00,Rainwise IP-100,2013-02-15 16:21:00,
2013-02-15 11:26:00,40.0,29.0,29.90,West,270,20.0,25.0,63,0.00,,,0.00,Rainwise IP-100,2013-02-15 16:26:00,
2013-02-15 11:31:00,40.0,29.0,29.90,WSW,247,19.0,26.0,64,0.00,,,0.00,Rainwise IP-100,2013-02-15 16:31:00,
2013-02-15 11:36:00,40.0,29.0,29.90,SW,225,22.0,25.0,62,0.00,,,0.00,Rainwise IP-100,2013-02-15 16:36:00,
2013-02-15 11:41:00,40.0,28.0,29.90,West,270,13.0,27.0,61,0.00,,,0.00,Rainwise IP-100,2013-02-15 16:41:00,
2013-02-15 11:46:00,40.0,28.0,29.90,West,270,19.0,31.0,61,0.00,,,0.00,Rainwise IP-100,2013-02-15 16:46:00,
2013-02-15 11:51:00,40.0,28.0,29.90,WSW,247,16.0,25.0,61,0.00,,,0.00,Rainwise IP-100,2013-02-15 16:51:00,
2013-02-15 11:56:00,40.0,28.0,29.90,WSW,247,12.0,28.0,59,0.00,,,0.00,Rainwise IP-100,2013-02-15 16:56:00,
2013-02-15 12:01:00,40.0,28.0,29.90,SW,225,13.0,23.0,59,0.00,,,0.00,Rainwise IP-100,2013-02-15 17:01:00,
2013-02-15 12:06:00,40.0,28.0,29.90,SW,225,13.0,31.0,58,0.00,,,0.00,Rainwise IP-100,2013-02-15 17:06:00,
2013-02-15 12:11:00,40.0,28.0,29.90,WSW,247,22.0,28.0,58,0.00,,,0.00,Rainwise IP-100,2013-02-15 17:11:00,
2013-02-15 12:16:00,40.0,26.0,29.90,West,270,19.0,27.0,57,0.00,,,0.00,Rainwise IP-100,2013-02-15 17:16:00,
2013-02-15 12:21:00,40.0,28.0,29.90,WNW,292,24.0,31.0,58,0.00,,,0.00,Rainwise IP-100,2013-02-15 17:21:00,
2013-02-15 12:26:00,39.0,26.0,29.90,West,270,14.0,29.0,59,0.00,,,0.00,Rainwise IP-100,2013-02-15 17:26:00,
2013-02-15 12:31:00,39.0,26.0,29.91,SW,225,12.0,21.0,59,0.00,,,0.00,Rainwise IP-100,2013-02-15 17:31:00,
2013-02-15 12:36:00,39.0,26.0,29.91,West,270,14.0,19.0,60,0.00,,,0.00,Rainwise IP-100,2013-02-15 17:36:00,
2013-02-15 12:41:00,39.0,28.0,29.90,SW,225,23.0,23.0,61,0.00,,,0.00,Rainwise IP-100,2013-02-15 17:41:00,
2013-02-15 12:46:00,39.0,26.0,29.90,SW,225,18.0,28.0,59,0.00,,,0.00,Rainwise IP-100,2013-02-15 17:46:00,
2013-02-15 12:51:00,39.0,26.0,29.91,West,270,19.0,20.0,59,0.00,,,0.00,Rainwise IP-100,2013-02-15 17:51:00,
2013-02-15 12:56:00,39.0,26.0,29.91,West,270,16.0,25.0,60,0.00,,,0.00,Rainwise IP-100,2013-02-15 17:56:00,
2013-02-15 13:01:00,39.0,26.0,29.90,WSW,247,13.0,22.0,60,0.00,,,0.00,Rainwise IP-100,2013-02-15 18:01:00,
2013-02-15 13:06:00,40.0,28.0,29.90,West,270,19.0,22.0,60,0.00,,,0.00,Rainwise IP-100,2013-02-15 18:06:00,
2013-02-15 13:11:00,39.0,28.0,29.91,WSW,247,24.0,26.0,61,0.00,,,0.00,Rainwise IP-100,2013-02-15 18:11:00,
2013-02-15 13:16:00,39.0,28.0,29.91,SW,225,18.0,24.0,62,0.00,,,0.00,Rainwise IP-100,2013-02-15 18:16:00,
2013-02-15 13:21:00,39.0,28.0,29.91,SW,225,16.0,27.0,62,0.00,,,0.00,Rainwise IP-100,2013-02-15 18:21:00,
2013-02-15 13:26:00,38.0,28.0,29.91,WSW,247,12.0,22.0,64,0.00,,,0.00,Rainwise IP-100,2013-02-15 18:26:00,
2013-02-15 13:31:00,38.0,28.0,29.91,WSW,247,15.0,21.0,65,0.00,,,0.00,Rainwise IP-100,2013-02-15 18:31:00,
2013-02-15 13:36:00,38.0,26.0,29.92,WNW,292,16.0,26.0,63,0.00,,,0.00,Rainwise IP-100,2013-02-15 18:36:00,
2013-02-15 13:41:00,37.0,26.0,29.93,SSW,202,9.0,26.0,63,0.00,,,0.00,Rainwise IP-100,2013-02-15 18:41:00,
2013-02-15 13:46:00,37.0,26.0,29.93,WSW,247,8.0,20.0,63,0.00,,,0.00,Rainwise IP-100,2013-02-15 18:46:00,
2013-02-15 13:51:00,37.0,24.0,29.93,West,270,13.0,22.0,61,0.00,,,0.00,Rainwise IP-100,2013-02-15 18:51:00,
2013-02-15 13:56:00,37.0,24.0,29.93,SW,225,9.0,18.0,61,0.00,,,0.00,Rainwise IP-100,2013-02-15 18:56:00,
2013-02-15 14:01:00,38.0,26.0,29.93,West,270,11.0,22.0,59,0.00,,,0.00,Rainwise IP-100,2013-02-15 19:01:00,
2013-02-15 14:06:00,38.0,24.0,29.93,West,270,12.0,20.0,58,0.00,,,0.00,Rainwise IP-100,2013-02-15 19:06:00,
2013-02-15 14:11:00,39.0,24.0,29.93,WSW,247,6.0,17.0,56,0.00,,,0.00,Rainwise IP-100,2013-02-15 19:11:00,
2013-02-15 14:16:00,39.0,24.0,29.93,West,270,8.0,17.0,56,0.00,,,0.00,Rainwise IP-100,2013-02-15 19:16:00,
2013-02-15 14:21:00,39.0,24.0,29.93,SW,225,11.0,15.0,55,0.00,,,0.00,Rainwise IP-100,2013-02-15 19:21:00,
2013-02-15 14:26:00,39.0,24.0,29.93,West,270,11.0,22.0,55,0.00,,,0.00,Rainwise IP-100,2013-02-15 19:26:00,
2013-02-15 14:31:00,39.0,24.0,29.93,SW,225,17.0,23.0,53,0.00,,,0.00,Rainwise IP-100,2013-02-15 19:31:00,
2013-02-15 14:36:00,39.0,24.0,29.93,West,270,10.0,19.0,54,0.00,,,0.00,Rainwise IP-100,2013-02-15 19:36:00,
2013-02-15 14:41:00,40.0,24.0,29.92,WNW,292,15.0,19.0,52,0.00,,,0.00,Rainwise IP-100,2013-02-15 19:41:00,
2013-02-15 14:46:00,40.0,24.0,29.92,SW,225,9.0,17.0,52,0.00,,,0.00,Rainwise IP-100,2013-02-15 19:46:00,
2013-02-15 14:51:00,40.0,23.0,29.92,WSW,247,12.0,21.0,49,0.00,,,0.00,Rainwise IP-100,2013-02-15 19:51:00,
2013-02-15 14:56:00,39.0,23.0,29.92,WNW,292,14.0,26.0,50,0.00,,,0.00,Rainwise IP-100,2013-02-15 19:56:00,
2013-02-15 15:01:00,39.0,23.0,29.92,WSW,247,17.0,23.0,49,0.00,,,0.00,Rainwise IP-100,2013-02-15 20:01:00,
2013-02-15 15:06:00,39.0,23.0,29.92,WSW,247,14.0,25.0,50,0.00,,,0.00,Rainwise IP-100,2013-02-15 20:06:00,
2013-02-15 15:11:00,39.0,23.0,29.94,WSW,247,15.0,25.0,50,0.00,,,0.00,Rainwise IP-100,2013-02-15 20:11:00,
2013-02-15 15:16:00,39.0,23.0,29.94,SW,225,7.0,25.0,51,0.00,,,0.00,Rainwise IP-100,2013-02-15 20:16:00,
2013-02-15 15:21:00,39.0,23.0,29.94,West,270,9.0,21.0,52,0.00,,,0.00,Rainwise IP-100,2013-02-15 20:21:00,
2013-02-15 15:26:00,38.0,23.0,29.94,WSW,247,10.0,22.0,54,0.00,,,0.00,Rainwise IP-100,2013-02-15 20:26:00,
2013-02-15 15:31:00,38.0,23.0,29.94,WNW,292,15.0,21.0,54,0.00,,,0.00,Rainwise IP-100,2013-02-15 20:31:00,
2013-02-15 15:36:00,38.0,23.0,29.94,WNW,292,13.0,19.0,54,0.00,,,0.00,Rainwise IP-100,2013-02-15 20:36:00,
2013-02-15 15:41:00,38.0,23.0,29.94,West,270,8.0,24.0,54,0.00,,,0.00,Rainwise IP-100,2013-02-15 20:41:00,
2013-02-15 15:46:00,38.0,23.0,29.94,West,270,15.0,18.0,53,0.00,,,0.00,Rainwise IP-100,2013-02-15 20:46:00,
2013-02-15 15:51:00,38.0,23.0,29.94,West,270,7.0,16.0,54,0.00,,,0.00,Rainwise IP-100,2013-02-15 20:51:00,
2013-02-15 15:56:00,38.0,23.0,29.94,West,270,11.0,15.0,53,0.00,,,0.00,Rainwise IP-100,2013-02-15 20:56:00,
2013-02-15 16:01:00,38.0,23.0,29.94,West,270,9.0,19.0,52,0.00,,,0.00,Rainwise IP-100,2013-02-15 21:01:00,
2013-02-15 16:06:00,38.0,23.0,29.94,WSW,247,16.0,19.0,54,0.00,,,0.00,Rainwise IP-100,2013-02-15 21:06:00,
2013-02-15 16:11:00,38.0,23.0,29.94,West,270,9.0,17.0,53,0.00,,,0.00,Rainwise IP-100,2013-02-15 21:11:00,
2013-02-15 16:16:00,37.0,23.0,29.94,West,270,13.0,18.0,54,0.00,,,0.00,Rainwise IP-100,2013-02-15 21:16:00,
2013-02-15 16:21:00,37.0,23.0,29.95,West,270,10.0,17.0,54,0.00,,,0.00,Rainwise IP-100,2013-02-15 21:21:00,
2013-02-15 16:26:00,37.0,23.0,29.95,WSW,247,10.0,19.0,54,0.00,,,0.00,Rainwise IP-100,2013-02-15 21:26:00,
2013-02-15 16:31:00,37.0,23.0,29.95,West,270,12.0,16.0,54,0.00,,,0.00,Rainwise IP-100,2013-02-15 21:31:00,
2013-02-15 16:36:00,37.0,23.0,29.95,WSW,247,10.0,15.0,54,0.00,,,0.00,Rainwise IP-100,2013-02-15 21:36:00,
2013-02-15 16:41:00,37.0,23.0,29.96,WSW,247,6.0,20.0,54,0.00,,,0.00,Rainwise IP-100,2013-02-15 21:41:00,
2013-02-15 16:46:00,37.0,23.0,29.96,WNW,292,7.0,16.0,53,0.00,,,0.00,Rainwise IP-100,2013-02-15 21:46:00,
2013-02-15 16:51:00,37.0,21.0,29.96,WSW,247,9.0,17.0,52,0.00,,,0.00,Rainwise IP-100,2013-02-15 21:51:00,
2013-02-15 16:56:00,37.0,21.0,29.96,West,270,9.0,19.0,52,0.00,,,0.00,Rainwise IP-100,2013-02-15 21:56:00,
2013-02-15 17:01:00,37.0,23.0,29.96,WSW,247,8.0,17.0,53,0.00,,,0.00,Rainwise IP-100,2013-02-15 22:01:00,
2013-02-15 17:06:00,36.0,21.0,29.96,West,270,5.0,15.0,52,0.00,,,0.00,Rainwise IP-100,2013-02-15 22:06:00,
2013-02-15 17:11:00,36.0,21.0,29.96,WSW,247,18.0,18.0,52,0.00,,,0.00,Rainwise IP-100,2013-02-15 22:11:00,
2013-02-15 17:16:00,36.0,21.0,29.96,WSW,247,8.0,18.0,52,0.00,,,0.00,Rainwise IP-100,2013-02-15 22:16:00,
2013-02-15 17:21:00,36.0,21.0,29.97,WSW,247,12.0,15.0,53,0.00,,,0.00,Rainwise IP-100,2013-02-15 22:21:00,
2013-02-15 17:26:00,36.0,21.0,29.97,SW,225,10.0,14.0,54,0.00,,,0.00,Rainwise IP-100,2013-02-15 22:26:00,
2013-02-15 17:31:00,36.0,21.0,29.97,SW,225,6.0,19.0,53,0.00,,,0.00,Rainwise IP-100,2013-02-15 22:31:00,
2013-02-15 17:36:00,36.0,23.0,29.97,SW,225,10.0,18.0,56,0.00,,,0.00,Rainwise IP-100,2013-02-15 22:36:00,
2013-02-15 17:41:00,36.0,21.0,29.97,West,270,12.0,15.0,53,0.00,,,0.00,Rainwise IP-100,2013-02-15 22:41:00,
2013-02-15 17:46:00,36.0,21.0,29.97,West,270,7.0,16.0,53,0.00,,,0.00,Rainwise IP-100,2013-02-15 22:46:00,
2013-02-15 17:51:00,36.0,21.0,29.97,SW,225,10.0,18.0,53,0.00,,,0.00,Rainwise IP-100,2013-02-15 22:51:00,
2013-02-15 17:56:00,36.0,21.0,29.97,SW,225,6.0,20.0,54,0.00,,,0.00,Rainwise IP-100,2013-02-15 22:56:00,
2013-02-15 18:01:00,36.0,23.0,29.98,WSW,247,6.0,12.0,55,0.00,,,0.00,Rainwise IP-100,2013-02-15 23:01:00,
2013-02-15 18:07:00,36.0,21.0,29.98,West,270,12.0,13.0,53,0.00,,,0.00,Rainwise IP-100,2013-02-15 23:07:00,
2013-02-15 18:12:00,36.0,21.0,29.98,South,180,6.0,17.0,53,0.00,,,0.00,Rainwise IP-100,2013-02-15 23:12:00,
2013-02-15 18:17:00,36.0,21.0,29.98,SW,225,9.0,12.0,54,0.00,,,0.00,Rainwise IP-100,2013-02-15 23:17:00,
2013-02-15 18:22:00,36.0,21.0,29.98,WSW,247,9.0,12.0,53,0.00,,,0.00,Rainwise IP-100,2013-02-15 23:22:00,
2013-02-15 18:27:00,36.0,21.0,29.98,SSW,202,6.0,13.0,54,0.00,,,0.00,Rainwise IP-100,2013-02-15 23:27:00,
2013-02-15 18:32:00,36.0,23.0,29.98,West,270,11.0,11.0,55,0.00,,,0.00,Rainwise IP-100,2013-02-15 23:32:00,
2013-02-15 18:37:00,35.0,21.0,29.98,WSW,247,9.0,16.0,54,0.00,,,0.00,Rainwise IP-100,2013-02-15 23:37:00,
2013-02-15 18:42:00,36.0,21.0,29.98,NE,45,3.0,12.0,54,0.00,,,0.00,Rainwise IP-100,2013-02-15 23:42:00,
2013-02-15 18:47:00,35.0,21.0,29.98,SW,225,9.0,11.0,55,0.00,,,0.00,Rainwise IP-100,2013-02-15 23:47:00,
2013-02-15 18:52:00,35.0,21.0,29.99,SW,225,10.0,15.0,53,0.00,,,0.00,Rainwise IP-100,2013-02-15 23:52:00,
2013-02-15 18:57:00,35.0,21.0,29.99,SW,225,8.0,14.0,54,0.00,,,0.00,Rainwise IP-100,2013-02-15 23:57:00,
2013-02-15 19:02:00,35.0,21.0,29.99,SSW,202,8.0,12.0,54,0.00,,,0.00,Rainwise IP-100,2013-02-16 00:02:00,
2013-02-15 19:07:00,35.0,21.0,29.99,SW,225,6.0,11.0,54,0.00,,,0.00,Rainwise IP-100,2013-02-16 00:07:00,
2013-02-15 19:12:00,35.0,21.0,30.00,SSW,202,5.0,10.0,56,0.00,,,0.00,Rainwise IP-100,2013-02-16 00:12:00,
2013-02-15 19:17:00,35.0,21.0,30.00,WSW,247,9.0,17.0,53,0.00,,,0.00,Rainwise IP-100,2013-02-16 00:17:00,
2013-02-15 19:22:00,35.0,21.0,29.99,WSW,247,8.0,14.0,53,0.00,,,0.00,Rainwise IP-100,2013-02-16 00:22:00,
2013-02-15 19:27:00,35.0,21.0,29.99,SSW,202,7.0,13.0,54,0.00,,,0.00,Rainwise IP-100,2013-02-16 00:27:00,
2013-02-15 19:32:00,35.0,21.0,29.99,WSW,247,3.0,14.0,54,0.00,,,0.00,Rainwise IP-100,2013-02-16 00:32:00,
2013-02-15 19:37:00,35.0,21.0,29.99,SW,225,10.0,15.0,53,0.00,,,0.00,Rainwise IP-100,2013-02-16 00:37:00,
2013-02-15 19:42:00,35.0,21.0,29.99,West,270,8.0,17.0,55,0.00,,,0.00,Rainwise IP-100,2013-02-16 00:42:00,
2013-02-15 19:47:00,35.0,21.0,29.99,WSW,247,14.0,17.0,53,0.00,,,0.00,Rainwise IP-100,2013-02-16 00:47:00,
2013-02-15 19:52:00,35.0,21.0,29.99,SW,225,10.0,18.0,54,0.00,,,0.00,Rainwise IP-100,2013-02-16 00:52:00,
2013-02-15 19:57:00,35.0,21.0,29.99,WSW,247,7.0,12.0,56,0.00,,,0.00,Rainwise IP-100,2013-02-16 00:57:00,
2013-02-15 20:02:00,35.0,21.0,30.00,WSW,247,7.0,8.0,55,0.00,,,0.00,Rainwise IP-100,2013-02-16 01:02:00,
2013-02-15 20:07:00,35.0,21.0,30.00,West,270,8.0,14.0,56,0.00,,,0.00,Rainwise IP-100,2013-02-16 01:07:00,
2013-02-15 20:12:00,35.0,21.0,30.00,West,270,4.0,12.0,56,0.00,,,0.00,Rainwise IP-100,2013-02-16 01:12:00,
2013-02-15 20:17:00,35.0,21.0,30.00,West,270,2.0,13.0,56,0.00,,,0.00,Rainwise IP-100,2013-02-16 01:17:00,
2013-02-15 20:22:00,34.0,21.0,30.00,South,180,1.0,7.0,57,0.00,,,0.00,Rainwise IP-100,2013-02-16 01:22:00,
2013-02-15 20:27:00,34.0,23.0,30.00,SSW,202,4.0,9.0,58,0.00,,,0.00,Rainwise IP-100,2013-02-16 01:27:00,
2013-02-15 20:32:00,33.0,21.0,30.01,SE,135,4.0,7.0,60,0.00,,,0.00,Rainwise IP-100,2013-02-16 01:32:00,
2013-02-15 20:37:00,33.0,21.0,30.01,SSE,157,5.0,6.0,59,0.00,,,0.00,Rainwise IP-100,2013-02-16 01:37:00,
2013-02-15 20:42:00,34.0,23.0,30.01,SW,225,7.0,7.0,58,0.00,,,0.00,Rainwise IP-100,2013-02-16 01:42:00,
2013-02-15 20:47:00,34.0,23.0,30.01,East,90,4.0,9.0,58,0.00,,,0.00,Rainwise IP-100,2013-02-16 01:47:00,
2013-02-15 20:52:00,34.0,23.0,30.01,ENE,67,0.0,5.0,59,0.00,,,0.00,Rainwise IP-100,2013-02-16 01:52:00,
2013-02-15 20:57:00,33.0,23.0,30.01,ENE,67,2.0,3.0,61,0.00,,,0.00,Rainwise IP-100,2013-02-16 01:57:00,
2013-02-15 21:02:00,32.0,21.0,30.01,SE,135,0.0,3.0,62,0.00,,,0.00,Rainwise IP-100,2013-02-16 02:02:00,
2013-02-15 21:07:00,31.0,21.0,30.01,East,90,7.0,7.0,64,0.00,,,0.00,Rainwise IP-100,2013-02-16 02:07:00,
2013-02-15 21:12:00,32.0,23.0,30.01,SE,135,5.0,7.0,64,0.00,,,0.00,Rainwise IP-100,2013-02-16 02:12:00,
2013-02-15 21:17:00,31.0,21.0,30.01,SE,135,6.0,6.0,65,0.00,,,0.00,Rainwise IP-100,2013-02-16 02:17:00,
2013-02-15 21:22:00,32.0,21.0,30.01,SE,135,4.0,6.0,63,0.00,,,0.00,Rainwise IP-100,2013-02-16 02:22:00,
2013-02-15 21:27:00,31.0,21.0,30.01,South,180,7.0,7.0,65,0.00,,,0.00,Rainwise IP-100,2013-02-16 02:27:00,
2013-02-15 21:32:00,31.0,21.0,30.01,SE,135,7.0,9.0,66,0.00,,,0.00,Rainwise IP-100,2013-02-16 02:32:00,
2013-02-15 21:37:00,31.0,21.0,30.01,West,270,7.0,13.0,63,0.00,,,0.00,Rainwise IP-100,2013-02-16 02:37:00,
2013-02-15 21:42:00,32.0,23.0,30.01,SSE,157,7.0,11.0,64,0.00,,,0.00,Rainwise IP-100,2013-02-16 02:42:00,
2013-02-15 21:47:00,31.0,21.0,30.01,SSE,157,8.0,9.0,66,0.00,,,0.00,Rainwise IP-100,2013-02-16 02:47:00,
2013-02-15 21:52:00,31.0,21.0,30.01,SSW,202,8.0,12.0,62,0.00,,,0.00,Rainwise IP-100,2013-02-16 02:52:00,
2013-02-15 21:57:00,32.0,21.0,30.01,SSW,202,7.0,12.0,61,0.00,,,0.00,Rainwise IP-100,2013-02-16 02:57:00,
2013-02-15 22:02:00,32.0,21.0,30.00,South,180,6.0,9.0,59,0.00,,,0.00,Rainwise IP-100,2013-02-16 03:02:00,
2013-02-15 22:07:00,32.0,21.0,30.00,SW,225,9.0,10.0,61,0.00,,,0.00,Rainwise IP-100,2013-02-16 03:07:00,
2013-02-15 22:12:00,32.0,21.0,30.01,South,180,3.0,10.0,62,0.00,,,0.00,Rainwise IP-100,2013-02-16 03:12:00,
2013-02-15 22:17:00,31.0,21.0,30.01,SSW,202,7.0,8.0,62,0.00,,,0.00,Rainwise IP-100,2013-02-16 03:17:00,
2013-02-15 22:22:00,31.0,21.0,30.01,SW,225,1.0,7.0,63,0.00,,,0.00,Rainwise IP-100,2013-02-16 03:22:00,
2013-02-15 22:27:00,30.0,21.0,30.01,West,270,2.0,4.0,65,0.00,,,0.00,Rainwise IP-100,2013-02-16 03:27:00,
2013-02-15 22:32:00,30.0,21.0,30.02,WSW,247,4.0,4.0,64,0.00,,,0.00,Rainwise IP-100,2013-02-16 03:32:00,
2013-02-15 22:37:00,31.0,21.0,30.02,WSW,247,6.0,8.0,62,0.00,,,0.00,Rainwise IP-100,2013-02-16 03:37:00,
2013-02-15 22:42:00,31.0,21.0,30.01,WSW,247,3.0,7.0,63,0.00,,,0.00,Rainwise IP-100,2013-02-16 03:42:00,
2013-02-15 22:47:00,31.0,21.0,30.01,WSW,247,1.0,5.0,64,0.00,,,0.00,Rainwise IP-100,2013-02-16 03:47:00,
2013-02-15 22:52:00,30.0,21.0,30.02,WSW,247,1.0,3.0,65,0.00,,,0.00,Rainwise IP-100,2013-02-16 03:52:00,
2013-02-15 22:57:00,30.0,21.0,30.02,WSW,247,0.0,2.0,66,0.00,,,0.00,Rainwise IP-100,2013-02-16 03:57:00,
2013-02-15 23:02:00,30.0,21.0,30.02,WSW,247,0.0,2.0,65,0.00,,,0.00,Rainwise IP-100,2013-02-16 04:02:00,
2013-02-15 23:07:00,30.0,21.0,30.02,SSE,157,2.0,5.0,65,0.00,,,0.00,Rainwise IP-100,2013-02-16 04:07:00,
2013-02-15 23:12:00,30.0,21.0,30.02,SSE,157,4.0,5.0,65,0.00,,,0.00,Rainwise IP-100,2013-02-16 04:12:00,
2013-02-15 23:17:00,30.0,21.0,30.02,SSE,157,2.0,5.0,65,0.00,,,0.00,Rainwise IP-100,2013-02-16 04:17:00,
2013-02-15 23:22:00,30.0,21.0,30.01,SSE,157,0.0,6.0,65,0.00,,,0.00,Rainwise IP-100,2013-02-16 04:22:00,
2013-02-15 23:27:00,30.0,21.0,30.01,SSE,157,0.0,0.0,67,0.00,,,0.00,Rainwise IP-100,2013-02-16 04:27:00,
2013-02-15 23:32:00,30.0,21.0,30.01,SSE,157,0.0,0.0,67,0.00,,,0.00,Rainwise IP-100,2013-02-16 04:32:00,
2013-02-15 23:37:00,30.0,21.0,30.01,SSE,157,2.0,2.0,67,0.00,,,0.00,Rainwise IP-100,2013-02-16 04:37:00,
2013-02-15 23:42:00,30.0,21.0,30.01,SSE,157,0.0,3.0,67,0.00,,,0.00,Rainwise IP-100,2013-02-16 04:42:00,
2013-02-15 23:47:00,29.0,21.0,30.01,SSE,157,0.0,2.0,68,0.00,,,0.00,Rainwise IP-100,2013-02-16 04:47:00,
2013-02-15 23:52:00,29.0,21.0,30.02,SSE,157,0.0,0.0,69,0.00,,,0.00,Rainwise IP-100,2013-02-16 04:52:00,
2013-02-15 23:57:00,29.0,21.0,30.02,SSE,157,0.0,1.0,68,0.00,,,0.00,Rainwise IP-100,2013-02-16 04:57:00,